Regional Weather Roundup
Issued by NWS

Home | Current Version | Previous Version | Graphics & Text | Print | Product List | Glossary On
Versions: 1 2 3 4 5 6 7 8 9 10 11 12 13 14 15 16 17 18 19 20 21 22 23 24 25 26 27 28 29 30 31 32 33 34 35 36 37 38 39 40 41 42 43 44 45 46 47 48 49 50
164
ASUS43 KLSX 262207
RWRMO

WEATHER SUMMARY FOR MISSOURI
NATIONAL WEATHER SERVICE SPRINGFIELD MO
500 PM CDT MON JUN 26 2017

NOTE: "FAIR" INDICATES FEW OR NO CLOUDS BELOW 12,000 FEET WITH NO
       SIGNIFICANT WEATHER AND/OR OBSTRUCTIONS TO VISIBILITY.
       CURRENT SKY AND/OR WEATHER CONDITIONS ARE NOT AVAILABLE FOR
       CHILLICOTHE AND FARMINGTON.

MOZ001>031-035>038-043-044-053-054-262300-
...NORTHERN AND WESTERN MISSOURI...

CITY           SKY/WX    TMP DP  RH WIND       PRES   REMARKS
KANSAS CTY INT PTSUNNY   70  55  59 S9        30.12F
KANSAS C DTWN  PTSUNNY   74  54  49 S12G17    30.11F
LEE`S SUMMIT   PTSUNNY   72  52  49 SE9       30.12F
ST JOSEPH      CLOUDY    69  59  70 W3        30.13F
CHILLICOTHE      N/A     68  58  70 CALM      30.15F
KIRKSVILLE     PTSUNNY   72  54  53 W8        30.13F

$$
MOZ066>068-077>081-088>096-101>105-262300-
...SOUTHWEST MISSOURI...

CITY           SKY/WX    TMP DP  RH WIND       PRES   REMARKS
SPRINGFIELD    CLOUDY    67  65  93 NE13      30.14S
JOPLIN         CLOUDY    76  66  71 NE10      30.09S
BRANSON        CLOUDY    77  64  65 CALM      30.12F

$$
MOZ032>034-039>042-045>050-055>058-069>072-262300-
...CENTRAL MISSOURI...

CITY           SKY/WX    TMP DP  RH WIND       PRES   REMARKS
COLUMBIA       MOSUNNY   63  59  87 SW8       30.14S
JEFFERSON CITY CLOUDY    63  57  81 SW6       30.13F
ROLLA          LGT RAIN  60  56  86 N5        30.16F
SEDALIA        CLOUDY    65  62  90 S6        30.13F
WHITEMAN AFB   PTSUNNY   65  65 100 SE5       30.11F
WARRENSBURG    PTSUNNY   70  55  60 S7        30.12F
OSAGE BEACH    CLOUDY    64  55  72 E5        30.17F

$$
MOZ051-052-059>065-262300-
...EAST CENTRAL MISSOURI...

CITY           SKY/WX    TMP DP  RH WIND       PRES   REMARKS
ST LOUIS INTL  PTSUNNY   75  49  39 W12       30.13F
SPIRIT OF STL  CLOUDY    70  56  61 W7        30.14S
ST CHARLES     PTSUNNY   73  47  39 W8        30.12F

$$
MOZ072>076-082>087-097>100-106>115-262300-
...SOUTH CENTRAL AND SOUTHEAST MISSOURI...

CITY           SKY/WX    TMP DP  RH WIND       PRES   REMARKS
CAPE GIRARDEAU CLOUDY    75  54  47 SW6       30.11F
FARMINGTON     CLOUDY    74  49  41 N7        30.15R
POPLAR BLUFF   CLOUDY    70  66  87 NW5       30.12F
WEST PLAINS    CLOUDY    73  59  61 MISG      30.16R

$$




USA.gov is the U.S. government's official web portal to all federal, state and local government web resources and services.